Location: Piolenc
(44.1794°N, 4.7641°E)
Time: 04:33:39
(UTC+00:00)

Cosmos 540 Rocket - Pass Details

Date: 27 January 2021
Orbit: 739 x 754 km, 74.1° (Epoch: 27 February)

Event Time Altitude Azimuth Distance (km) Brightness Sun altitude
Exits shadow 05:01:40 32° 332° (NNW) 1,263 4.3 -21.9°
Drops below altitude 10° 05:05:05 10° 6° (N) 2,273 6.0 -21.3°
Sets 05:07:38 0° 15° (NNE) 3,204 6.8 -20.8°
